This demonstration page uses our WeatherBlox Daily Observations layout. Learn more.

Left ArrowRight Arrow

39.92423, -83.80882

Hourly Observations for February 22, 2022

Temp ( °F °C ) Dew Point ( °F °C ) Humidity (%) Winds ( mph kmh ) Pressure ( in mb ) Visibility ( mi km ) Precip ( " mm )
12:56 am 00:56 Mostly Cloudy 52 11.1 42 5.6 69 69 S 10 17 29.97 1015 10 16 0.00 0.00
1:56 am 01:56 Partly Cloudy 51 10.6 43 6.1 74 74 SSE 6 9 29.98 1015 10 16 0.00 0.00
2:33 am 02:33 Mostly Cloudy 54 12 45 7 72 72 SSW 12 19 29.98 1015 10 16 0.00 0.00
2:51 am 02:51 Cloudy with Thunderstorms 52 11 48 9 88 88 SW 13 20 30.01 1016 10 16 0.00 0.00
2:56 am 02:56 Cloudy with Thunderstorms 51 10.6 51 10.6 100 100 SW 15 24 30.01 1016 10 16 0.00 0.00
3:05 am 03:05 Cloudy with Nearby Thunderstorms 52 11 52 11 100 100 SSW 14 22 30.01 1016 10 16 0.00 0.00
3:14 am 03:14 Cloudy with Rain 52 11 52 11 100 100 S 10 17 29.99 1015 8 13 0.00 0.00
3:52 am 03:52 Cloudy with Nearby Thunderstorms 50 10 N/A N/A SW 8 13 29.99 1016 5 8 0.00 0.00
3:56 am 03:56 Cloudy with Strong Thunderstorms 50 10 N/A N/A SW 6 9 29.99 1016 4 6 0.00 0.00
4:03 am 04:03 Cloudy with Strong Thunderstorms 50 10 N/A N/A WSW 5 7 30.00 1016 3 5 0.00 0.00
4:10 am 04:10 Cloudy with Heavy Rain 50 10 N/A N/A Calm 30.00 1016 3 5 0.00 0.00
4:16 am 04:16 Cloudy with Nearby Thunderstorms 50 10 N/A N/A W 7 11 30.02 1017 3 5 0.00 0.00
4:39 am 04:39 Cloudy with Rain 50 10 N/A N/A ESE 6 9 29.99 1016 4 6 0.00 0.00
4:44 am 04:44 Cloudy with Light Rain 48 9 N/A N/A SE 7 11 30.00 1016 2 3 0.00 0.00
4:53 am 04:53 Cloudy with Light Rain 48 9 N/A N/A SSE 8 13 30.00 1016 3 5 0.00 0.00
4:56 am 04:56 Cloudy with Light Rain 48 9 N/A N/A SSE 7 11 29.98 1015 6 10 0.00 0.00
5:11 am 05:11 Cloudy with Light Rain 48 9 N/A N/A SE 6 9 29.99 1015 5 8 0.00 0.00
5:41 am 05:41 Cloudy with Light Rain 48 9 N/A N/A SE 7 11 29.98 1015 6 10 0.00 0.00
5:56 am 05:56 Cloudy with Light Rain 48 9 N/A N/A SE 9 15 29.97 1015 5 8 0.00 0.00
6:07 am 06:07 Cloudy with Nearby Thunderstorms 48 9 N/A N/A SE 13 20 29.97 1015 4 6 0.00 0.00
6:34 am 06:34 Cloudy with Thunderstorms 48 9 N/A N/A SE 7 11 29.97 1015 3 4 0.00 0.00
6:40 am 06:40 Cloudy with Light Rain 48 9 N/A N/A SE 10 17 29.96 1014 3 5 0.00 0.00
6:56 am 06:56 Cloudy with Light Rain 48 9 N/A N/A SSE 10 17 29.95 1014 3 5 0.00 0.00
7:32 am 07:32 Cloudy with Light Rain 52 11 N/A N/A SSE 10 17 29.93 1013 2 3 0.00 0.00
7:41 am 07:41 Cloudy with Light Rain 52 11 N/A N/A SSE 10 17 29.93 1013 2 3 0.00 0.00
7:49 am 07:49 Cloudy with Light Rain 52 11 N/A N/A SSE 12 19 29.92 1013 2 3 0.00 0.00
7:56 am 07:56 Cloudy with Light Rain 52 11 N/A N/A SSE 10 17 29.92 1013 2 3 0.00 0.00
8:26 am 08:26 Cloudy with Mist and Fog 54 12 N/A N/A S 9 15 29.90 1013 3 5 0.00 0.00
8:56 am 08:56 Cloudy with Rain 54 12 N/A N/A S 10 17 29.91 1013 5 8 0.00 0.00
9:32 am 09:32 Cloudy with Light Rain 54 12 N/A N/A S 9 15 29.88 1012 8 13 0.00 0.00
9:56 am 09:56 Cloudy with Light Rain 54 12 N/A N/A S 12 19 29.87 1012 10 16 0.00 0.00
10:56 am 10:56 Cloudy with Rain 55 13 N/A N/A S 10 17 29.84 1011 6 10 0.00 0.00
11:56 am 11:56 Cloudy with Rain 55 13 N/A N/A S 13 20 29.80 1009 6 10 0.00 0.00
12:36 pm 12:36 Cloudy with Heavy Rain 55 13 N/A N/A W 10 17 29.76 1008 2 3 0.00 0.00
12:45 pm 12:45 Cloudy with Heavy Rain 55 13 N/A N/A SW 10 17 29.76 1008 3 5 0.00 0.00
12:56 pm 12:56 Cloudy with Light Rain 55 13 N/A N/A S 5 7 29.75 1007 4 6 0.00 0.00
1:06 pm 13:06 Cloudy with Light Rain 55 13 N/A N/A SE 14 22 29.69 1005 10 16 0.00 0.00
1:56 pm 13:56 Cloudy 57 14 N/A N/A SW 16 26 29.72 1007 10 16 0.00 0.00
2:14 pm 14:14 Cloudy 59 15 N/A N/A SW 22 35 29.72 1006 10 16 0.00 0.00
2:48 pm 14:48 Cloudy 61 16 61 16 100 100 SW 24 39 29.73 1007 10 16 0.00 0.00
2:56 pm 14:56 Cloudy 60 15.6 60 15.6 100 100 SW 20 31 29.76 1008 10 16 0.00 0.00
3:56 pm 15:56 Cloudy 60 15.6 60 15.6 100 100 SW 21 33 29.79 1009 10 16 0.00 0.00
4:56 pm 16:56 Cloudy 60 15.6 60 15.6 100 100 SW 17 28 29.82 1010 10 16 0.00 0.00
5:46 pm 17:46 Cloudy with Haze 59 15 N/A N/A SW 18 30 29.82 1010 6 10 0.00 0.00
5:56 pm 17:56 Cloudy with Haze 57 14 N/A N/A SW 17 28 29.84 1010 6 10 0.00 0.00
6:26 pm 18:26 Cloudy with Haze 57 14 N/A N/A SSW 13 20 29.84 1010 6 10 0.00 0.00
6:56 pm 18:56 Cloudy with Haze 57 14 N/A N/A SSW 16 26 29.87 1011 5 8 0.00 0.00
7:06 pm 19:06 Cloudy with Haze 57 14 N/A N/A SSW 18 30 29.86 1011 5 8 0.00 0.00
7:56 pm 19:56 Cloudy with Light Rain 57 14 N/A N/A SSW 16 26 29.89 1012 3 5 0.00 0.00
8:51 pm 20:51 Cloudy with Light Rain 57 14 N/A N/A SW 16 26 29.91 1013 6 10 0.00 0.00
8:56 pm 20:56 Cloudy with Light Rain 57 14 N/A N/A SW 15 24 29.91 1013 7 11 0.00 0.00
9:52 pm 21:52 Cloudy with Light Rain 57 14 N/A N/A WSW 15 24 29.93 1013 9 14 0.00 0.00
9:56 pm 21:56 Cloudy with Light Rain 57 14 N/A N/A WNW 20 31 29.94 1014 10 16 0.00 0.00
10:08 pm 22:08 Cloudy with Light Rain 52 11 N/A N/A W 21 33 29.96 1014 10 16 0.00 0.00
10:45 pm 22:45 Cloudy 48 9 48 9 100 100 W 23 37 30.00 1016 10 16 0.00 0.00
10:56 pm 22:56 Cloudy 49 9.4 49 9.4 100 100 W 22 35 29.99 1016 10 16 0.00 0.00
11:14 pm 23:14 Cloudy 48 9 48 9 100 100 W 16 26 30.01 1016 10 16 0.00 0.00
11:29 pm 23:29 Cloudy 46 8 46 8 100 100 WNW 20 31 30.02 1017 10 16 0.00 0.00
11:56 pm 23:56 Cloudy 44 6.7 44 6.7 100 100 WNW 18 30 30.04 1017 10 16 0.00 0.00

Powered by AerisWeather